Akron, CO

12:44 PM MDT on March 27, 2017 (GMT -0600)
Akron-Washington County

Weather History for KAKO - March, 2014

Change the Weather History Date:

Tuesday, March 18, 2014

  Actual Average Record
Temperature  
Mean Temperature 31 °F 40 °F  
Max Temperature 39 °F 53 °F 80 °F (2017)
Min Temperature 22 °F 27 °F -5 °F (1943)
Degree Days  
Heating Degree Days 34    
Month to date heating degree days 477  
Cooling Degree Days 0    
Month to date cooling degree days 0  
Moisture  
Dew Point 25 °F    
Average Humidity 65    
Maximum Humidity 92    
Minimum Humidity 37    
Precipitation  
Precipitation 0.09 in 0.03 in 0.85 in (1954)
Month to date precipitation 0.28 0.43  
Year to date precipitation 0.71 1.17  
Sea Level Pressure  
Sea Level Pressure 29.76 in    
Wind  
Wind Speed 23 mph (NNW)    
Max Wind Speed 44 mph    
Max Gust Speed 58 mph    
Visibility 4 miles    
Events Fog , Snow    
T = Trace of Precipitation, MM = Missing Value Source: NWS Daily Summary

Daily Weather History Graph

Daily Weather History Graph

Search for Another Location

Airport or City:

Trip Planner

Search our weather history database for the weather conditions in past years. The results will help you decide how hot, cold, wet, or windy it might be!

Date:

Astronomy

Mar. 18, 2014 Rise Set
Actual Time 6:59 AM MDT 7:02 PM MDT
Civil Twilight 6:32 AM MDT 7:30 PM MDT
Nautical Twilight 6:00 AM MDT 8:01 PM MDT
Astronomical Twilight 5:28 AM MDT 8:33 PM MDT
Moon 9:22 PM MDT (3/18) 7:50 AM MDT (3/18)
Length of Visible Light 12h 57m
Length of Day
12h 03m
Waning Gibbous, 96% of the Moon is Illuminated
Mar 18
Waning Gibbous
Mar 23
Last Quarter
Mar 30
New
Apr 7
First Quarter
Apr 15
Full

Hourly Weather History & Observations

Time (MDT) Temp. Windchill Dew Point Humidity Pressure Visibility Wind Dir Wind Speed Gust Speed Precip Events Conditions
12:53 AM 39.0 °F 29.0 °F 18.0 °F 43% 29.38 in 10.0 mi NNW 20.7 mph 28.8 mph 0.00 in   Overcast
1:53 AM 37.9 °F 28.2 °F 14.0 °F 38% 29.39 in 10.0 mi NNW 18.4 mph - N/A   Overcast
2:53 AM 32.0 °F 23.0 °F 15.1 °F 50% 29.39 in 10.0 mi NW 11.5 mph - N/A   Mostly Cloudy
3:53 AM 28.9 °F 19.8 °F 14.0 °F 54% 29.39 in 10.0 mi NW 10.4 mph - N/A   Clear
4:53 AM 33.1 °F 23.0 °F 14.0 °F 46% 29.39 in 10.0 mi WNW 15.0 mph - N/A   Mostly Cloudy
5:53 AM 36.0 °F 26.3 °F 21.0 °F 55% 29.41 in 10.0 mi WNW 16.1 mph - N/A   Overcast
6:53 AM 35.1 °F 24.5 °F 26.1 °F 70% 29.47 in 10.0 mi NW 18.4 mph - N/A   Overcast
7:10 AM 34.0 °F 22.7 °F 27.0 °F 75% 29.51 in 10.0 mi NW 19.6 mph - N/A   Overcast
7:53 AM 33.1 °F 21.9 °F 28.0 °F 82% 29.52 in 3.0 mi NNW 18.4 mph - 0.00 in Snow Light Snow
8:13 AM 32.0 °F 17.9 °F 28.9 °F 88% 29.55 in 9.0 mi North 28.8 mph 35.7 mph 0.00 in Snow Light Snow
8:22 AM 30.9 °F 15.9 °F 27.0 °F 85% 29.57 in 9.0 mi North 31.1 mph - 0.00 in   Overcast
8:31 AM 30.9 °F 15.9 °F 27.0 °F 85% 29.58 in 10.0 mi North 31.1 mph 41.4 mph 0.00 in   Overcast
8:53 AM 30.0 °F 15.7 °F 26.1 °F 85% 29.61 in 6.0 mi North 26.5 mph 35.7 mph 0.00 in Snow Light Snow
9:07 AM 30.0 °F 16.3 °F 27.0 °F 88% 29.62 in 2.5 mi North 24.2 mph 35.7 mph 0.00 in Snow Light Snow
9:14 AM 30.0 °F 16.9 °F 27.0 °F 88% 29.62 in 1.2 mi NNW 21.9 mph 28.8 mph 0.00 in Snow Light Snow
9:18 AM 30.0 °F 16.0 °F 27.0 °F 88% 29.63 in 1.0 mi North 25.3 mph 31.1 mph 0.00 in Snow Light Snow
9:39 AM 28.9 °F 13.5 °F 26.1 °F 89% 29.64 in 1.2 mi North 29.9 mph 38.0 mph 0.00 in Snow Light Snow
9:45 AM 28.9 °F 13.7 °F 26.1 °F 89% 29.65 in 1.5 mi North 28.8 mph 38.0 mph 0.00 in Snow Light Snow
9:53 AM 28.9 °F 14.3 °F 27.0 °F 92% 29.68 in 1.2 mi NNW 26.5 mph 35.7 mph 0.00 in Snow Light Snow
10:02 AM 28.9 °F 15.1 °F 27.0 °F 92% 29.66 in 1.0 mi NNW 23.0 mph 32.2 mph 0.01 in Snow Light Snow
10:15 AM 28.9 °F 13.7 °F 27.0 °F 92% 29.67 in 0.8 mi NNW 28.8 mph 39.1 mph 0.01 in Snow Light Snow
10:40 AM 28.0 °F 11.5 °F 27.0 °F 96% 29.69 in 0.2 mi NNW 33.4 mph 44.9 mph 0.01 in Fog , Snow Heavy Snow
10:53 AM 28.9 °F 12.8 °F 27.0 °F 92% 29.73 in 0.2 mi NNW 33.4 mph 41.4 mph 0.02 in Fog , Snow Heavy Snow
11:53 AM 28.0 °F 10.7 °F 26.1 °F 92% 29.78 in 0.2 mi NNW 38.0 mph 52.9 mph 0.03 in Fog , Snow Heavy Snow
12:10 PM 28.9 °F 12.5 °F 27.0 °F 92% 29.75 in 0.2 mi NNW 34.5 mph 46.0 mph 0.01 in Fog Light Freezing Fog
12:53 PM 28.9 °F 14.3 °F 27.0 °F 92% 29.84 in 0.2 mi NNW 26.5 mph 33.4 mph 0.04 in Fog Light Freezing Fog
1:18 PM 30.0 °F 14.7 °F 28.0 °F 92% 29.81 in 0.2 mi NNW 31.1 mph 41.4 mph N/A Fog Light Freezing Fog
1:32 PM 30.0 °F 15.4 °F 27.0 °F 88% 29.82 in 0.2 mi NNW 27.6 mph 43.7 mph N/A Fog Light Freezing Fog
1:53 PM 30.0 °F 15.7 °F 28.0 °F 92% 29.88 in 0.2 mi NNW 26.5 mph 38.0 mph N/A Fog Light Freezing Fog
2:53 PM 30.0 °F 15.4 °F 28.0 °F 92% 29.94 in 0.2 mi NNW 27.6 mph 35.7 mph N/A Fog Light Freezing Fog
3:06 PM 30.0 °F 14.5 °F 28.0 °F 92% 29.87 in 0.5 mi NNW 32.2 mph 39.1 mph N/A Fog Light Freezing Fog
3:18 PM 30.0 °F 14.5 °F 28.0 °F 92% 29.88 in 0.2 mi NNW 32.2 mph 39.1 mph N/A Fog Light Freezing Fog
3:34 PM 30.0 °F 14.7 °F 28.0 °F 92% 29.89 in 0.2 mi NNW 31.1 mph - N/A Fog Light Freezing Fog
3:44 PM 30.0 °F 14.7 °F 28.0 °F 92% 29.90 in 0.5 mi NW 31.1 mph 39.1 mph N/A Fog Light Freezing Fog
3:53 PM 30.0 °F 15.4 °F 28.0 °F 92% 29.99 in 0.5 mi NNW 27.6 mph 39.1 mph N/A Fog Light Freezing Fog
4:00 PM 30.9 °F 15.9 °F 27.0 °F 85% 29.91 in 1.0 mi NNW 31.1 mph 41.4 mph N/A   Overcast
4:07 PM 30.9 °F 16.4 °F 27.0 °F 85% 29.91 in 0.8 mi NNW 28.8 mph 42.6 mph N/A   Overcast
4:12 PM 30.9 °F 16.7 °F 27.0 °F 85% 29.91 in 1.5 mi NNW 27.6 mph - N/A   Overcast
4:17 PM 30.9 °F 16.2 °F 27.0 °F 85% 29.92 in 1.0 mi NNW 29.9 mph 39.1 mph N/A   Overcast
4:24 PM 32.0 °F 18.6 °F 27.0 °F 82% 29.92 in 1.5 mi NNW 25.3 mph - 0.00 in Snow Light Snow
4:27 PM 32.0 °F 18.4 °F 27.0 °F 82% 29.92 in 3.0 mi NNW 26.5 mph - 0.00 in Snow Light Snow
4:53 PM 32.0 °F 18.9 °F 26.1 °F 79% 29.99 in 9.0 mi NNW 24.2 mph 33.4 mph 0.00 in   Overcast
5:53 PM 32.0 °F 18.9 °F 24.1 °F 73% 30.01 in 10.0 mi NNW 24.2 mph 34.5 mph N/A   Mostly Cloudy
6:53 PM 30.9 °F 18.7 °F 23.0 °F 72% 30.04 in 10.0 mi NNW 19.6 mph - N/A   Scattered Clouds
7:53 PM 28.9 °F 17.3 °F 23.0 °F 78% 30.10 in 10.0 mi NNW 16.1 mph - N/A   Mostly Cloudy
8:53 PM 27.0 °F 15.2 °F 21.0 °F 78% 30.14 in 10.0 mi NNW 15.0 mph - N/A   Scattered Clouds
9:53 PM 25.0 °F 13.6 °F 19.0 °F 78% 30.17 in 10.0 mi NNW 12.7 mph - N/A   Clear
10:53 PM 24.1 °F 13.1 °F 19.0 °F 81% 30.17 in 10.0 mi NNW 11.5 mph - N/A   Clear
11:53 PM 25.0 °F 14.8 °F 19.0 °F 78% 30.17 in 10.0 mi NNW 10.4 mph - N/A   Clear